TimeMDT,TemperatureF,Dew PointF,Humidity,Sea Level PressureIn,VisibilityMPH,Wind Direction,Wind SpeedMPH,Gust SpeedMPH,PrecipitationIn,Events,Conditions,WindDirDegrees,DateUTC
12:56 AM,59.0,42.1,53,30.22,10.0,NNE,6.9,-,N/A,,Partly Cloudy,30,2013-07-14 06:56:00
1:56 AM,57.0,42.1,57,30.23,10.0,NNE,5.8,21.9,N/A,,Mostly Cloudy,30,2013-07-14 07:56:00
2:56 AM,59.0,43.0,55,30.21,10.0,NNE,5.8,-,N/A,,Overcast,20,2013-07-14 08:56:00
3:56 AM,59.0,43.0,55,30.20,10.0,NE,6.9,-,0.00,,Overcast,50,2013-07-14 09:56:00
4:56 AM,59.0,44.1,58,30.19,10.0,NNE,5.8,-,N/A,,Mostly Cloudy,20,2013-07-14 10:56:00
5:56 AM,55.0,45.0,69,30.20,10.0,North,4.6,-,N/A,,Mostly Cloudy,360,2013-07-14 11:56:00
6:56 AM,57.0,46.0,67,30.19,10.0,WNW,4.6,-,N/A,,Clear,300,2013-07-14 12:56:00
7:56 AM,59.0,46.9,64,30.20,10.0,Calm,Calm,-,N/A,,Overcast,0,2013-07-14 13:56:00
8:56 AM,61.0,45.0,56,30.22,10.0,South,5.8,-,N/A,,Overcast,180,2013-07-14 14:56:00
9:56 AM,66.0,43.0,43,30.20,10.0,SW,3.5,-,N/A,,Partly Cloudy,230,2013-07-14 15:56:00
10:56 AM,70.0,44.1,39,30.19,10.0,NNE,3.5,-,N/A,,Clear,20,2013-07-14 16:56:00
11:56 AM,72.0,44.1,37,30.17,10.0,Variable,3.5,-,N/A,,Mostly Cloudy,0,2013-07-14 17:56:00
12:56 PM,75.9,46.0,35,30.12,10.0,Calm,Calm,-,N/A,,Clear,0,2013-07-14 18:56:00
1:56 PM,80.1,48.0,32,30.10,10.0,East,6.9,-,N/A,,Clear,100,2013-07-14 19:56:00
2:56 PM,81.0,46.9,30,30.07,10.0,Calm,Calm,-,N/A,,Scattered Clouds,0,2013-07-14 20:56:00
3:56 PM,81.0,46.0,29,30.06,10.0,East,4.6,-,N/A,,Partly Cloudy,90,2013-07-14 21:56:00
4:56 PM,84.0,44.1,25,30.03,10.0,Variable,3.5,-,N/A,,Clear,0,2013-07-14 22:56:00
5:56 PM,86.0,41.0,20,30.01,10.0,Variable,6.9,-,N/A,,Clear,0,2013-07-14 23:56:00
6:56 PM,84.9,37.9,19,30.00,10.0,Variable,6.9,-,N/A,,Clear,0,2013-07-15 00:56:00
7:56 PM,82.0,46.0,28,29.99,10.0,NE,11.5,-,N/A,,Clear,50,2013-07-15 01:56:00
8:56 PM,75.0,48.0,38,30.00,10.0,East,4.6,-,N/A,,Clear,80,2013-07-15 02:56:00
9:56 PM,69.1,48.9,49,30.00,10.0,SE,10.4,-,N/A,,Clear,130,2013-07-15 03:56:00
10:56 PM,66.9,48.0,51,30.00,10.0,SE,11.5,-,N/A,,Clear,140,2013-07-15 04:56:00
11:56 PM,68.0,48.9,50,29.99,10.0,SE,13.8,-,N/A,,Clear,130,2013-07-15 05:56:00